Hourly Weather Roundup
Issued by NWS Central Illinois

Home | Current Version | Previous Version | Text Only | Print | Product List | Glossary On
Versions: 1 2 3 4 5 6 7 8 9 10 11 12 13 14 15 16 17 18 19 20 21 22 23 24 25 26 27 28 29 30 31 32 33 34 35 36 37 38 39 40 41 42 43 44 45 46 47 48 49 50
000
NZUS43 KILX 020510
HWRILX

AREA WEATHER ROUNDUP
NATIONAL WEATHER SERVICE, LINCOLN IL
1200 AM CDT THU JUL 02 2015


CITY           SKY/WX    TMP DP  RH WIND       PRES   REMARKS
BLOOMINGTON    MOCLDY    62  58  87 NE12      29.97S
CHAMPAIGN      MOCLDY    63  57  81 NE10      29.94S
DANVILLE       NOT AVBL
DECATUR        LGT RAIN  65  62  90 NE9       29.92F
EFFINGHAM      NOT AVBL
FLORA          NOT AVBL
GALESBURG      NOT AVBL
JACKSONVILLE   NOT AVBL
LACON          NOT AVBL
LAWRENCEVILLE  LGT RAIN  69  69 100 CALM      29.89F
LITCHFIELD     NOT AVBL
$$


CITY           SKY/WX    TMP DP  RH WIND       PRES   REMARKS
LINCOLN        NOT AVBL
MACOMB         NOT AVBL
MATTOON        LGT RAIN  67  64  90 NE13      29.90F
MT CARMEL AP   NOT AVBL
OLNEY-NOBLE AP NOT AVBL
PARIS          NOT AVBL
PEORIA         CLOUDY    68  58  70 E15       29.95R
PONTIAC        NOT AVBL
RANTOUL        NOT AVBL
ROBINSON       NOT AVBL
SPRINGFIELD    MOCLDY    70  64  81 NE13      29.90F
TAYLORVILLE    NOT AVBL
$$

...REGIONAL REPORTS...


CITY           SKY/WX    TMP DP  RH WIND       PRES   REMARKS
CHICAGO O`HARE MOCLDY    54  49  83 N6        30.00S
KANKAKEE       NOT AVBL
MOLINE         MOCLDY    66  53  63 NE10      29.97R
MOUNT STERLING NOT AVBL
MOUNT VERNON   CLOUDY    72  66  83 CALM      29.91R
PITTSFIELD     NOT AVBL
QUINCY         LGT RAIN  69  66  90 NE7       29.90F
ROCKFORD       PTCLDY    56  50  80 E5        30.02F
$$


CITY           SKY/WX    TMP DP  RH WIND       PRES   REMARKS
BURLINGTON     CLOUDY    67  61  81 NE10      29.93S
CEDAR RAPIDS   PTCLDY    61  55  81 NE8       29.98R
DES MOINES     MOCLDY    65  56  72 E9        29.95S
KIRKSVILLE     PTCLDY    68  66  93 E7        29.91F
OTTUMWA        CLOUDY    66  61  84 NE9       29.94R
ST LOUIS       CLOUDY    74  70  87 S5        29.88R
$$


CITY           SKY/WX    TMP DP  RH WIND       PRES   REMARKS
TERRE HAUTE    LGT RAIN  69  66  90 NE7       29.90F
EVANSVILLE     CLOUDY    73  71  93 N7        29.91S
INDIANAPOLIS   CLOUDY    68  60  75 NE9       29.91F
LAFAYETTE      CLOUDY    60  51  72 NE5       29.96S
MADISON        CLEAR     56  51  84 SE5       30.01S
MILWAUKEE      CLEAR     53  48  83 N7        30.02F
$$




USA.gov is the U.S. government's official web portal to all federal, state and local government web resources and services.